[Date Prev][Date Next][Thread Prev][Thread Next] - [Date Index][Thread Index][Author Index]
2 Line ISS Keps 3-27
- Subject: [sarex] 2 Line ISS Keps 3-27
- From: "Dave Larsen PhD" <doc@xxxxxxxxxxx>
- Date: Sat, 27 Mar 2004 05:20:49 -0800
ISS
1 25544U 98067A 04087.52399306 .00023614 00000-0 21840-3 0 4557
2 25544 51.6303 21.8238 0010571 326.8900 16.4514 15.67354315305498
----
Via the sarex mailing list at AMSAT.ORG courtesy of AMSAT-NA.
To unsubscribe, send "unsubscribe sarex" to Majordomo@amsat.org
AMSAT Home